Flag for France Weather past 2 weeks in Dijon, France

Now
55 °F

Clear.


Feels Like: 55 °F
Forecast: 46 / 65 °F
Wind: 5 mph from Northwest

Location: Dijon Airport

Current Time: Sep 5, 2015 at 1:22:22 AM

Latest Report: Sep 5, 2015 at 1:00 AM


Visibility: 10 mi

Pressure: 30.07 "Hg

Humidity: 67%

Dew point: 45 °F

Location of DijonLocation

Historic Weather in Dijon — Graph

°F

Dijon temperature yesterday

Maximum temperature yesterday: 70 °F (at 3:30 PM)
Minimum temperature yesterday: 46 °F (at 7:00 AM)
Average temperature yesterday: 59 °F

Past Weeks' High & Low Weather Summary

 TemperatureHumidityPressure
High93 °F (Aug 30, 5:30 PM)100% (Aug 24, 12:30 AM)30.21 "Hg (Aug 24, 12:30 AM)
Low46 °F (Sep 4, 7:00 AM)20% (Aug 30, 5:30 PM)29.65 "Hg (Aug 24, 6:00 AM)
Average68 °F65%29.99 "Hg
* Reported Midnight between Aug 20 and Aug 21 — Midnight between Sep 4 and Sep 5, Dijon, Weather by CustomWeather, © 2015

Note: Actual official high and low records may vary slightly from our data, if they occured in-between our weather recording intervals... More about our weather records

Advertising

Dijon weather history for previous 24 hours

 ConditionsComfort  
Time TempWeatherWind HumidityBarometerVisibility
12:00 AM
Sat, Sep 5
57 °FClear.6 mph59%30.07 "Hg10 mi
11:30 PM
Fri, Sep 4
57 °FClear.6 mph59%30.07 "Hg10 mi
11:00 PM59 °FClear.6 mph55%30.07 "Hg10 mi
10:30 PM59 °FPassing clouds.5 mph55%30.07 "HgN/A
10:00 PM59 °FClear.6 mph51%30.07 "Hg10 mi
9:30 PM61 °FClear.8 mph48%30.07 "Hg10 mi
9:00 PM61 °FSunny.12 mph48%30.04 "Hg10 mi
8:30 PM61 °FSunny.10 mph45%30.04 "Hg10 mi
8:00 PM63 °FSunny.9 mph42%30.04 "Hg10 mi
7:30 PM63 °FSunny.9 mph45%30.04 "Hg10 mi
7:00 PM64 °FSunny.9 mph40%30.04 "Hg10 mi
6:30 PM64 °FSunny.12 mph43%30.01 "Hg10 mi
6:00 PM66 °FPassing clouds.10 mph43%30.01 "HgN/A
5:30 PM66 °FPassing clouds.10 mph43%30.01 "HgN/A
5:00 PM66 °FPassing clouds.10 mph43%30.01 "HgN/A
4:30 PM66 °FPassing clouds.7 mph40%30.01 "HgN/A
4:00 PM66 °FPassing clouds.10 mph43%30.01 "HgN/A
3:30 PM70 °FPassing clouds.7 mph38%30.01 "HgN/A
3:00 PM66 °FPassing clouds.5 mph40%30.04 "HgN/A
2:30 PM66 °FPassing clouds.5 mph37%30.04 "HgN/A
2:00 PM66 °FPassing clouds.5 mph37%30.04 "HgN/A
1:30 PM66 °FSunny.9 mph40%30.04 "Hg10 mi
1:00 PM66 °FPassing clouds.3 mph40%30.04 "HgN/A
12:30 PM64 °FPassing clouds.5 mph43%30.07 "HgN/A
12:00 PM64 °FPartly sunny.3 mph46%30.07 "HgN/A
11:30 AM66 °FSunny.3 mph46%30.07 "Hg10 mi
11:00 AM64 °FSunny.1 mph49%30.07 "Hg10 mi
10:30 AM63 °FSunny.1 mph52%30.07 "Hg10 mi
10:00 AM61 °FSunny.No wind59%30.07 "Hg10 mi
9:30 AM59 °FSunny.No wind63%30.07 "Hg10 mi
9:00 AM54 °FSunny.2 mph72%30.07 "Hg10 mi
8:30 AM52 °FSunny.5 mph77%30.04 "Hg10 mi
8:00 AM48 °FClear.5 mph87%30.04 "Hg10 mi
7:30 AM46 °FClear.3 mph87%30.04 "Hg10 mi
7:00 AM46 °FClear.3 mph87%30.04 "Hg10 mi
6:30 AM48 °FClear.3 mph82%30.04 "Hg10 mi
6:00 AM48 °FClear.2 mph82%30.04 "Hg10 mi
5:30 AM48 °FClear.1 mph82%30.04 "Hg10 mi
5:00 AM50 °FClear.2 mph82%30.04 "Hg10 mi
4:30 AM52 °FClear.3 mph77%30.04 "Hg10 mi
4:00 AM52 °FPassing clouds.5 mph77%30.04 "HgN/A
3:30 AM52 °FClear.3 mph77%30.04 "Hg10 mi
3:00 AM52 °FClear.2 mph77%30.04 "Hg10 mi
2:30 AM54 °FClear.3 mph72%30.04 "Hg10 mi
2:00 AM54 °FClear.No wind72%30.04 "Hg10 mi
1:30 AM55 °FClear.3 mph67%30.04 "Hg10 mi
1:00 AM55 °FClear.5 mph72%30.04 "Hg10 mi
Weather by CustomWeather, © 2015

See weather overviewHow to use our weather pages